カタログに戻る

STARLINK-34582

運用中通信VLEO
NORAD 64781·PAYLOAD·🇺🇸 United States

打ち上げ Jul 8, 2025 から Cape Canaveral Space Force Station

Loading…

次のパス (今後24時間)

TLE

最新Source: CelesTrak SupGP

元期: Sep 14, 2026, 21:21 UTC

1 64781C 25147AC  26257.89006944  .00021294  00000+0  62922-3 0  2575
2 64781  53.1585  79.5868 0001265  83.4906 160.3097 15.34375964    16

AllMySatでSTARLINK-34582をリアルタイム追跡

Download on the App Store